Location: Aressy
(43.2833°N, 0.3167°W)
Time: 19:06:29
(UTC+00:00)

Cosmos 883 Rocket - Pass Details

Date: 28 January 2021
Orbit: 950 x 996 km, 83.0° (Epoch: 02 March)

Event Time Altitude Azimuth Distance (km) Brightness Sun altitude
Rises 19:39:24 0° 351° (N) 3,670 7.6 -27.6°
Reaches altitude 10° 19:41:55 10° 351° (N) 2,712 6.9 -28.0°
Maximum altitude 19:48:08 84° 265° (W) 968 4.4 -29.2°
Enters shadow 19:50:13 44° 181° (S) 1,288 5.0 -29.5°
